Location: ????? ??????
(37.8317°N, 23.8750°E)
Time: 13:49:09
(UTC+00:00)

Hubble Space Telescope - Pass Details

Date: 20 January 2021
Orbit: 535 x 539 km, 28.5° (Epoch: 04 March)

Event Time Altitude Azimuth Distance (km) Brightness Sun altitude
Rises 18:04:30 0° 249° (WSW) 2,675 5.4 -29.3°
Reaches altitude 10° 18:07:08 10° 234° (SW) 1,784 4.1 -29.9°
Enters shadow 18:08:35 17° 217° (SW) 1,404 3.2 -30.1°
